Regional Weather Roundup
Issued by NWS

Home | Current Version | Previous Version | Graphics & Text | Print | Product List | Glossary On
Versions: 1 2 3 4 5 6 7 8 9 10 11 12 13 14 15 16 17 18 19 20 21 22 23 24 25 26 27 28 29 30 31 32 33 34 35 36 37 38 39 40 41 42 43 44 45 46 47 48 49 50
338
ASUS44 KLIX 210801
RWRLA
LOUISIANA WEATHER ROUNDUP
NATIONAL WEATHER SERVICE NEW ORLEANS LA
300 AM CDT TUE OCT 21 2014

NOTE: "FAIR" INDICATES FEW OR NO CLOUDS BELOW 12,000 FEET WITH NO
      SIGNIFICANT WEATHER AND/OR OBSTRUCTIONS TO VISIBILITY.
      SKY/WX - SKY CONDITION AND SIGNIFICANT WEATHER.
      TMP - AIR TEMPERATURE.    DP   - DEWPOINT TEMPERATURE.
      RH  - RELATIVE HUMIDITY.  PRES - PRESSURE.
      HX  - HEAT INDEX.         WCI  - WIND CHILL INDEX.

*  THESE STATIONS ARE NOT NWS OR FAA STATIONS AND ARE NOT UNDER
   NWS QUALITY CONTROL.

LAZ040-048-061>063-065-066-069-210900-
SOUTHEAST LOUISIANA

CITY           SKY/WX    TMP DP  RH WIND       PRES   REMARKS
N.O. AUDUBON     N/A     64  56  75 MISG        N/A
N.O. INTL ARPT CLEAR     60  54  80 CALM      30.00S
N.O. LAKEFRONT CLEAR     69  57  65 E8        30.01S
N.O. DOWNTOWN* FAIR      66  52  59 NE5       30.01S
SLIDELL        CLEAR     52  49  89 N6        30.00F
BATON ROUGE    CLEAR     57  53  86 NE3       30.01F
BOOTHVILLE     CLEAR     71  62  73 NE5       29.99F
BELLE CHASSE   CLEAR     56  52  86 CALM      30.00S
BOGALUSA*        N/A     51  48  89 CALM      30.03F
NEW ROADS*     FAIR      55  54  97 CALM      30.02S
GONZALES*      FAIR      56  56 100 CALM      30.01S
HAMMOND*       NOT AVBL
HOUMA*         CLEAR     56  56  99 CALM      30.00F
PORT FOURCHON* SUNNY     70  63  78 N7        30.02S

$$

LAZ041-044-053-054-210900-
SOUTHWEST LOUISIANA

CITY           SKY/WX    TMP DP  RH WIND       PRES   REMARKS
LAKE CHARLES   CLEAR     58  54  86 E3        30.01F
LAFAYETTE      CLEAR     58  55  90 CALM      30.01S
PATTERSON      NOT AVBL
SALT POINT       N/A     62  58  86 CALM      29.99F
NEW IBERIA     CLEAR     61  54  77 E6        30.02S
CHENAULT AIRPK CLEAR     58  55  87 CALM      30.02S

$$

LAZ027-028-210900-
CENTRAL LOUISIANA

CITY           SKY/WX    TMP DP  RH WIND       PRES   REMARKS
FORT POLK      CLEAR     58  54  88 SE2       30.02S
ALEXANDRIA INT CLEAR     55  54  96 CALM      30.01S
ALEXANDRIA     CLEAR     53  51  93 CALM      30.03S

$$

LAZ001-002-210900-
NORTHWEST LOUISIANA

CITY           SKY/WX    TMP DP  RH WIND       PRES   REMARKS
SHREVEPORT     CLEAR     56  54  93 CALM      30.03S
BARKSDALE AFB  CLEAR     55  54  95 NE2       30.04S
DTN SHREVEPORT CLEAR     57  54  89 CALM      30.04S

$$

LAZ014-016-210900-
NORTHEAST LOUISIANA

CITY           SKY/WX    TMP DP  RH WIND       PRES   REMARKS
MONROE         FOG       56  55  97 CALM      30.05R VSB 3/4
TALLULAH       PTCLDY    49  48  97 CALM      30.03F

$$




USA.gov is the U.S. government's official web portal to all federal, state and local government web resources and services.